Vorticity
26 32 30 30 34 26 40 15 13 6 3 4 7 1 5 4 9 18 -26 6 23 4
18 24 27 31 35 24 33 26 7 14 3 2 5 4 1 22 -20 1 -37 -14 24 -4
25 20 21 37 35 31 34 28 8 16 6 2 3 5 -5 9 16 -0 21 -11 18 27
28 26 21 29 37 35 30 39 9 13 9 2 2 -2 2 3 3 7 1 18 -36 1
48 30 28 23 39 47 31 39 16 9 11 2 3 -0 2 1 2 16 -7 14 14 7
33 41 31 22 30 44 37 38 28 8 12 8 0 1 -3 3 6 0 8 0 -10 27
13 43 35 23 24 40 37 40 34 16 7 7 7 1 1 3 7 -3 8 4 10 4
5 11 43 33 13 36 43 34 37 30 7 11 8 1 4 1 2 4 7 1 22 -4
5 6 7 32 30 21 34 41 36 31 13 10 11 4 2 4 2 7 4 -3 -5 -8
2 4 7 5 10 45 28 35 45 30 20 8 9 6 6 2 5 6 3 3 13 4
6 3 3 7 5 10 42 36 48 42 23 13 9 9 7 3 3 1 0 5 4 5
7 5 4 1 4 8 8 21 45 48 44 24 14 9 4 7 1 1 5 1 5 9
7 6 6 4 3 3 5 6 -1 32 55 48 35 22 17 11 4 2 1 0 3 10
6 6 6 6 4 5 5 4 5 5 1 8 39 59 59 39 22 7 11 7 7 2
Height
5522 5518 5517 5520 5527 5536 5549 5567 5584 5603 5624 5642 5660 5676 5691 5701 5710 5720 5729 5737 5747 5755
5525 5520 5518 5519 5524 5535 5546 5564 5582 5599 5617 5636 5653 5670 5684 5694 5702 5713 5723 5732 5740 5748
5527 5522 5519 5520 5524 5533 5548 5564 5579 5596 5614 5632 5649 5665 5679 5689 5698 5708 5717 5726 5733 5741
5533 5525 5522 5522 5524 5532 5545 5561 5579 5595 5612 5629 5645 5660 5674 5685 5693 5704 5711 5720 5728 5735
5542 5533 5527 5526 5527 5533 5545 5559 5578 5595 5611 5628 5643 5657 5670 5681 5689 5699 5708 5713 5722 5729
5556 5543 5536 5533 5533 5537 5548 5562 5579 5596 5612 5628 5642 5655 5667 5678 5686 5694 5703 5709 5718 5723
5573 5560 5549 5545 5544 5547 5555 5566 5582 5599 5613 5628 5642 5654 5665 5674 5683 5691 5699 5705 5713 5718
5593 5581 5570 5561 5559 5562 5566 5575 5586 5604 5617 5630 5643 5654 5664 5672 5680 5688 5694 5701 5706 5711
5612 5602 5592 5583 5577 5577 5581 5586 5595 5606 5620 5633 5644 5653 5662 5670 5677 5685 5691 5695 5700 5703
5629 5620 5612 5605 5599 5593 5595 5600 5606 5614 5625 5634 5643 5652 5660 5667 5673 5679 5685 5690 5693 5696
5642 5636 5629 5624 5617 5615 5612 5612 5616 5624 5632 5640 5647 5654 5660 5665 5670 5675 5680 5684 5686 5690
5655 5649 5642 5638 5635 5632 5628 5627 5627 5631 5638 5645 5651 5656 5660 5663 5666 5669 5673 5676 5679 5682
5664 5659 5654 5650 5647 5645 5644 5642 5640 5640 5642 5647 5651 5654 5658 5660 5661 5663 5664 5668 5670 5673
5672 5667 5663 5659 5656 5653 5652 5651 5650 5650 5650 5650 5651 5651 5653 5655 5656 5656 5656 5657 5659 5660